Flag for Burkina Faso Weather past 2 weeks in Koudougou, Burkina Faso

Now
86 °F

Broken clouds.


Feels Like: 93 °F
Forecast: N/A
Wind: 6 mph from Southwest

Location: Ouagadougou Airport

Current Time: Jul 22, 2014 at 5:46:12 PM

Latest Report: Jul 22, 2014 at 4:00 PM


Visibility: N/A

Pressure: 29.95 "Hg

Humidity: 66%

Dew point: 73 °F

Location of KoudougouLocation

Historic Weather in Koudougou — Graph

°F

Koudougou temperature yesterday

Maximum temperature yesterday: 93 °F (at 2:00 PM)
Minimum temperature yesterday: 79 °F (at 5:00 AM)
Average temperature yesterday: 86 °F

Past Weeks' High & Low Weather Summary

 TemperatureHumidityPressure
High95 °F (Jul 10, 3:00 PM)100% (Jul 14, 2:00 AM)30.15 "Hg (Jul 14, 2:00 AM)
Low70 °F (Jul 17, 9:00 AM)44% (Jul 10, 4:00 PM)29.86 "Hg (Jul 13, 3:00 PM)
Average83 °F75%29.97 "Hg
* Reported Jul 7 4:00 PM — Jul 22 4:00 PM, Koudougou, Weather by CustomWeather, © 2014

Note: Actual official high and low records may vary slightly from our data, if they occured in-between our weather recording intervals... More about our weather records

Advertising

Koudougou weather history for previous 24 hours

 ConditionsComfort  
Time TempWeatherWind HumidityBarometerVisibility
4:00 PM
Jul 22
86 °FBroken clouds.6 mph66%29.95 "HgN/A
3:00 PM86 °FPartly sunny.6 mph66%29.95 "HgN/A
2:00 PM86 °FPartly sunny.16 mph66%29.92 "HgN/A
1:00 PM84 °FPartly sunny.15 mph70%29.95 "Hg5 mi
12:00 PM84 °FLight rain. Partly sunny.15 mph70%29.95 "Hg4 mi
11:00 AM82 °FPartly sunny.16 mph70%29.98 "HgN/A
10:00 AM82 °FPartly sunny.8 mph70%30.01 "HgN/A
9:00 AM79 °FPartly sunny.3 mph74%30.04 "HgN/A
8:00 AM75 °FThunderstorms. Broken clouds.7 mph83%30.04 "HgN/A
7:00 AM77 °FThunderstorms. Partly sunny.8 mph83%30.04 "HgN/A
6:00 AM77 °FThunderstorms. Partly sunny.6 mph83%30.01 "HgN/A
5:00 AM81 °FThunderstorms. Passing clouds.8 mph79%29.98 "HgN/A
4:00 AM81 °FThunderstorms. Passing clouds.6 mph79%29.98 "HgN/A
3:00 AM82 °FThunderstorms. Passing clouds.9 mph74%29.95 "HgN/A
2:00 AM82 °FPassing clouds.13 mph74%29.95 "HgN/A
1:00 AM82 °FPassing clouds.7 mph79%29.98 "HgN/A
12:00 AM84 °FPassing clouds.7 mph74%29.98 "HgN/A
11:00 PM
Jul 21
84 °FPassing clouds.9 mph74%29.98 "HgN/A
10:00 PM86 °FPassing clouds.8 mph70%29.98 "HgN/A
9:00 PM86 °FPassing clouds.7 mph70%29.98 "HgN/A
8:00 PM88 °FPassing clouds.6 mph62%29.95 "HgN/A
7:00 PM88 °FPassing clouds.7 mph62%29.92 "HgN/A
6:00 PM90 °FPartly sunny.10 mph59%29.92 "HgN/A
5:00 PM91 °FBroken clouds.9 mph56%29.92 "HgN/A
Weather by CustomWeather, © 2014

See weather overviewHow to use our weather pages